Regional Weather Roundup
Issued by NWS Glasgow, MT

Home | Current Version | Previous Version | Text Only | Print | Product List | Glossary On
Versions: 1 2 3 4 5 6 7 8 9 10 11 12 13 14 15 16 17 18 19 20 21 22 23 24 25 26 27 28 29 30 31 32 33 34 35 36 37 38 39 40 41 42 43 44 45 46 47 48 49 50
000
ASUS45 KGGW 200915
RWRGGW
HOURLY REGIONAL WEATHER ROUNDUP FOR NORTHEAST MONTANA
NATIONAL WEATHER SERVICE GLASGOW MONTANA
300 AM MDT SUN AUG 20 2017

NOTE: "FAIR" INDICATES FEW OR NO CLOUDS BELOW 12,000 FEET WITH NO
SIGNIFICANT WEATHER AND/OR OBSTRUCTIONS TO VISISBILITY.

NORTHEAST MONTANA


CITY           SKY/WX    TMP DP  RH WIND       PRES   REMARKS
GLASGOW        PTCLDY    53  31  42 NW5       30.03R
PLENTYWOOD       N/A     51  35  54 NW3         N/A
WOLF POINT     CLEAR     53  33  46 CALM      30.03R
JORDAN           N/A     54  34  46 NE5       30.05R
WINNETT          N/A     49  33  54 SW1         N/A
SIDNEY         PTCLDY    53  39  59 N5        30.03R
GLENDIVE       CLOUDY    55  36  48 N6        30.04S
MALTA            N/A     53  33  46 NW1         N/A
SCOBEY           N/A     41  28  60 CALM      30.03

FORT PECK REPORTS


CITY           SKY/WX    TMP DP  RH WIND       PRES   REMARKS
FORT PECK        N/A     54  30  40 NW6         N/A
THE PINES        N/A     58  32  37 NE7         N/A

SOUTHEAST MONTANA


CITY           SKY/WX    TMP DP  RH WIND       PRES   REMARKS
BILLINGS       CLOUDY    60  38  43 N9        30.04S
MILES CITY     CLOUDY    61  37  41 N9        30.04R
BAKER          CLOUDY    61  38  42 N7        30.05R
LIVINGSTON     CLEAR     59  38  45 E12       30.08F

CENTRAL MONTANA


CITY           SKY/WX    TMP DP  RH WIND       PRES   REMARKS
HAVRE          PTCLDY    54  32  43 NE9       30.02F
LEWISTOWN      CLEAR     53  34  48 E7        30.07S
GREAT FALLS    CLEAR     47  36  65 SW7       30.04R
CUT BANK       CLEAR     51  35  54 S8        30.05S
HELENA         CLEAR     64  38  38 W7        30.08S
BUTTE          CLEAR     47  33  58 S7        30.17S
BOZEMAN        CLEAR     53  41  63 CALM      30.08S

WESTERN MONTANA


CITY           SKY/WX    TMP DP  RH WIND       PRES   REMARKS
MISSOULA       CLEAR     53  38  56 CALM      30.10R
KALISPELL      NOT AVBL

NORTH DAKOTA


CITY           SKY/WX    TMP DP  RH WIND       PRES   REMARKS
WILLISTON      CLOUDY    52  40  63 E3        30.01R
DICKINSON      CLOUDY    56  44  64 NW5       30.01R
MINOT          MOCLDY    58  41  53 W12       29.95R
BISMARCK       MOCLDY    63  47  55 NW6       29.96R

SOUTHERN SASKATCHEWAN


CITY           SKY/WX    TMP DP  RH WIND       PRES   REMARKS
REGINA         CLEAR     39  34  81 SW3       29.98S
ESTEVAN        PTCLDY    46  37  71 NW10      29.98R
SWIFT CURRENT  MOCLDY    43  36  75 SW10      30.03R




USA.gov is the U.S. government's official web portal to all federal, state and local government web resources and services.